Time,TemperatureF,DewpointF,PressureIn,WindDirection,WindDirectionDegrees,WindSpeedMPH,WindSpeedGustMPH,Humidity,HourlyPrecipIn,Conditions,Clouds,dailyrainin,SoftwareType,DateUTC
2013-05-26 00:12:00,77.7,73.2,29.96,ESE,112,6.3,-999.0,86,-99.99,,,0.00,Acu-Link.com,2013-05-26 05:12:00,
2013-05-26 00:27:00,77.7,73.2,29.96,NE,45,5.3,-999.0,86,-99.99,,,0.00,Acu-Link.com,2013-05-26 05:27:00,
2013-05-26 00:42:00,77.7,73.2,29.94,ENE,67,8.3,-999.0,86,-99.99,,,0.00,Acu-Link.com,2013-05-26 05:42:00,
2013-05-26 00:57:00,77.5,73.3,29.92,ESE,112,4.7,-999.0,87,-99.99,,,0.00,Acu-Link.com,2013-05-26 05:57:00,
2013-05-26 01:12:00,77.5,73.3,29.94,East,90,3.7,-999.0,87,-99.99,,,0.00,Acu-Link.com,2013-05-26 06:12:00,
2013-05-26 01:27:00,77.5,73.3,29.95,ESE,112,2.7,-999.0,87,-99.99,,,0.00,Acu-Link.com,2013-05-26 06:27:00,
2013-05-26 01:43:00,77.5,73.3,29.94,ESE,112,2.7,-999.0,87,-99.99,,,0.00,Acu-Link.com,2013-05-26 06:43:00,
2013-05-26 01:58:00,77.5,73.3,29.93,East,90,5.3,-999.0,87,-99.99,,,0.00,Acu-Link.com,2013-05-26 06:58:00,
2013-05-26 02:13:00,77.5,73.3,29.93,SE,135,6.3,-999.0,87,-99.99,,,0.00,Acu-Link.com,2013-05-26 07:13:00,
2013-05-26 02:28:00,77.5,73.3,29.93,ENE,67,2.7,-999.0,87,-99.99,,,0.00,Acu-Link.com,2013-05-26 07:28:00,
2013-05-26 02:43:00,77.5,73.3,29.94,SSE,157,1.7,-999.0,87,-99.99,,,0.00,Acu-Link.com,2013-05-26 07:43:00,
2013-05-26 02:58:00,77.5,73.3,29.94,ESE,112,2.7,-999.0,87,-99.99,,,0.00,Acu-Link.com,2013-05-26 07:58:00,
2013-05-26 03:14:00,77.5,73.3,29.94,East,90,5.8,-999.0,87,-99.99,,,0.00,Acu-Link.com,2013-05-26 08:14:00,
2013-05-26 03:29:00,77.5,73.3,29.93,South,180,5.3,-999.0,87,-99.99,,,0.00,Acu-Link.com,2013-05-26 08:29:00,
2013-05-26 03:44:00,77.7,73.2,29.92,ESE,112,4.2,-999.0,86,-99.99,,,0.00,Acu-Link.com,2013-05-26 08:44:00,
2013-05-26 04:00:00,77.7,73.2,29.92,SE,135,2.2,-999.0,86,-99.99,,,0.00,Acu-Link.com,2013-05-26 09:00:00,
2013-05-26 04:15:00,77.7,73.2,29.93,SSW,202,2.2,-999.0,86,-99.99,,,0.00,Acu-Link.com,2013-05-26 09:15:00,
2013-05-26 04:30:00,77.7,73.2,29.94,ESE,112,5.8,-999.0,86,-99.99,,,0.00,Acu-Link.com,2013-05-26 09:30:00,
2013-05-26 04:45:00,77.7,73.2,29.91,NNE,22,3.7,-999.0,86,-99.99,,,0.00,Acu-Link.com,2013-05-26 09:45:00,
2013-05-26 05:00:00,77.7,73.2,29.89,SE,135,6.3,-999.0,86,-99.99,,,0.00,Acu-Link.com,2013-05-26 10:00:00,
2013-05-26 05:15:00,77.7,73.2,29.90,ESE,112,4.7,-999.0,86,-99.99,,,0.00,Acu-Link.com,2013-05-26 10:15:00,
2013-05-26 05:30:00,77.5,73.0,29.92,ESE,112,5.3,-999.0,86,-99.99,,,0.00,Acu-Link.com,2013-05-26 10:30:00,
2013-05-26 05:46:00,77.2,72.7,29.91,East,90,8.9,-999.0,86,-99.99,,,0.00,Acu-Link.com,2013-05-26 10:46:00,
2013-05-26 06:01:00,77.2,73.0,29.90,South,180,1.7,-999.0,87,-99.99,,,0.00,Acu-Link.com,2013-05-26 11:01:00,
2013-05-26 06:16:00,77.2,73.0,29.90,East,90,7.8,-999.0,87,-99.99,,,0.00,Acu-Link.com,2013-05-26 11:16:00,
2013-05-26 06:31:00,77.2,73.0,29.91,East,90,4.2,-999.0,87,-99.99,,,0.00,Acu-Link.com,2013-05-26 11:31:00,
2013-05-26 06:46:00,77.4,73.2,29.93,South,180,2.2,-999.0,87,-99.99,,,0.00,Acu-Link.com,2013-05-26 11:46:00,
2013-05-26 07:01:00,77.4,73.2,29.93,East,90,3.7,-999.0,87,-99.99,,,0.00,Acu-Link.com,2013-05-26 12:01:00,
2013-05-26 07:16:00,77.4,73.2,29.93,NE,45,4.7,-999.0,87,-99.99,,,0.00,Acu-Link.com,2013-05-26 12:16:00,
2013-05-26 07:31:00,77.5,72.6,29.92,ESE,112,2.2,-999.0,85,-99.99,,,0.00,Acu-Link.com,2013-05-26 12:31:00,
2013-05-26 07:46:00,78.1,73.2,29.92,East,90,2.7,-999.0,85,-99.99,,,0.00,Acu-Link.com,2013-05-26 12:46:00,
2013-05-26 08:02:00,78.6,73.0,29.92,ESE,112,6.3,-999.0,83,-99.99,,,0.00,Acu-Link.com,2013-05-26 13:02:00,
2013-05-26 08:17:00,79.3,72.9,29.93,ENE,67,7.8,-999.0,81,-99.99,,,0.00,Acu-Link.com,2013-05-26 13:17:00,
2013-05-26 08:32:00,79.5,72.8,29.94,East,90,5.3,-999.0,80,-99.99,,,0.00,Acu-Link.com,2013-05-26 13:32:00,
2013-05-26 08:47:00,79.9,72.4,29.94,SSE,157,4.2,-999.0,78,-99.99,,,0.00,Acu-Link.com,2013-05-26 13:47:00,
2013-05-26 09:02:00,80.1,72.6,29.94,SE,135,4.7,-999.0,78,-99.99,,,0.00,Acu-Link.com,2013-05-26 14:02:00,
2013-05-26 09:17:00,80.8,72.9,29.95,East,90,7.3,-999.0,77,-99.99,,,0.00,Acu-Link.com,2013-05-26 14:17:00,
2013-05-26 09:33:00,82.2,73.1,29.95,East,90,3.7,-999.0,74,-99.99,,,0.00,Acu-Link.com,2013-05-26 14:33:00,
2013-05-26 09:48:00,82.9,73.3,29.95,ESE,112,7.3,-999.0,73,-99.99,,,0.00,Acu-Link.com,2013-05-26 14:48:00,
2013-05-26 10:03:00,82.8,73.2,29.95,NE,45,4.7,-999.0,73,-99.99,,,0.00,Acu-Link.com,2013-05-26 15:03:00,
2013-05-26 10:18:00,85.6,74.2,29.95,WSW,247,6.8,-999.0,69,-99.99,,,0.00,Acu-Link.com,2013-05-26 15:18:00,
2013-05-26 10:33:00,88.2,74.9,29.95,East,90,5.8,-999.0,65,-99.99,,,0.00,Acu-Link.com,2013-05-26 15:33:00,
2013-05-26 10:48:00,86.0,74.2,29.94,East,90,7.3,-999.0,68,-99.99,,,0.00,Acu-Link.com,2013-05-26 15:48:00,
2013-05-26 11:04:00,86.4,74.1,29.94,NE,45,4.7,-999.0,67,-99.99,,,0.00,Acu-Link.com,2013-05-26 16:04:00,
2013-05-26 11:19:00,88.0,74.7,29.94,SE,135,5.8,-999.0,65,-99.99,,,0.00,Acu-Link.com,2013-05-26 16:19:00,
2013-05-26 11:34:00,88.2,74.5,29.94,ESE,112,2.7,-999.0,64,-99.99,,,0.00,Acu-Link.com,2013-05-26 16:34:00,
2013-05-26 11:49:00,88.5,73.8,29.94,East,90,8.3,-999.0,62,-99.99,,,0.00,Acu-Link.com,2013-05-26 16:49:00,
2013-05-26 12:05:00,89.2,74.9,29.94,SE,135,5.8,-999.0,63,-99.99,,,0.00,Acu-Link.com,2013-05-26 17:05:00,
2013-05-26 12:20:00,90.3,74.5,29.93,East,90,10.4,-999.0,60,-99.99,,,0.00,Acu-Link.com,2013-05-26 17:20:00,
2013-05-26 12:35:00,90.1,75.3,29.93,South,180,3.7,-999.0,62,-99.99,,,0.00,Acu-Link.com,2013-05-26 17:35:00,
2013-05-26 12:50:00,90.0,74.7,29.94,SSE,157,6.8,-999.0,61,-99.99,,,0.00,Acu-Link.com,2013-05-26 17:50:00,
2013-05-26 13:05:00,90.9,74.6,29.93,ESE,112,5.8,-999.0,59,-99.99,,,0.00,Acu-Link.com,2013-05-26 18:05:00,
2013-05-26 13:20:00,91.4,75.0,29.91,NE,45,6.3,-999.0,59,-99.99,,,0.00,Acu-Link.com,2013-05-26 18:20:00,
2013-05-26 13:35:00,90.0,74.2,29.90,ESE,112,4.2,-999.0,60,-99.99,,,0.00,Acu-Link.com,2013-05-26 18:35:00,
2013-05-26 13:50:00,91.0,74.1,29.92,ESE,112,8.3,-999.0,58,-99.99,,,0.00,Acu-Link.com,2013-05-26 18:50:00,
2013-05-26 14:05:00,91.6,73.6,29.92,East,90,5.3,-999.0,56,-99.99,,,0.00,Acu-Link.com,2013-05-26 19:05:00,
2013-05-26 14:21:00,91.9,74.4,29.91,East,90,4.2,-999.0,57,-99.99,,,0.00,Acu-Link.com,2013-05-26 19:21:00,
2013-05-26 14:36:00,90.5,73.7,29.90,SE,135,6.8,-999.0,58,-99.99,,,0.00,Acu-Link.com,2013-05-26 19:36:00,
2013-05-26 14:51:00,89.6,73.8,29.89,NNE,22,11.9,-999.0,60,-99.99,,,0.00,Acu-Link.com,2013-05-26 19:51:00,
2013-05-26 15:06:00,88.5,73.8,29.91,East,90,4.7,-999.0,62,-99.99,,,0.00,Acu-Link.com,2013-05-26 20:06:00,
2013-05-26 15:21:00,89.1,74.3,29.91,NE,45,6.8,-999.0,62,-99.99,,,0.00,Acu-Link.com,2013-05-26 20:21:00,
2013-05-26 15:36:00,86.9,73.2,29.90,ESE,112,8.3,-999.0,64,-99.99,,,0.00,Acu-Link.com,2013-05-26 20:36:00,
2013-05-26 15:51:00,86.2,73.5,29.88,South,180,7.8,-999.0,66,-99.99,,,0.00,Acu-Link.com,2013-05-26 20:51:00,
2013-05-26 16:06:00,88.5,73.3,29.88,East,90,5.3,-999.0,61,-99.99,,,0.00,Acu-Link.com,2013-05-26 21:06:00,
2013-05-26 16:21:00,89.1,74.3,29.89,East,90,10.9,-999.0,62,-99.99,,,0.00,Acu-Link.com,2013-05-26 21:21:00,
2013-05-26 16:37:00,88.7,74.0,29.88,East,90,9.9,-999.0,62,-99.99,,,0.00,Acu-Link.com,2013-05-26 21:37:00,
2013-05-26 16:52:00,86.9,74.1,29.86,East,90,7.3,-999.0,66,-99.99,,,0.00,Acu-Link.com,2013-05-26 21:52:00,
2013-05-26 17:07:00,88.2,74.5,29.85,NE,45,15.0,-999.0,64,-99.99,,,0.00,Acu-Link.com,2013-05-26 22:07:00,
2013-05-26 17:22:00,86.2,73.5,29.87,ESE,112,8.3,-999.0,66,-99.99,,,0.00,Acu-Link.com,2013-05-26 22:22:00,
2013-05-26 17:37:00,85.5,73.3,29.87,ENE,67,7.3,-999.0,67,-99.99,,,0.00,Acu-Link.com,2013-05-26 22:37:00,
2013-05-26 17:52:00,83.1,73.1,29.85,ESE,112,7.3,-999.0,72,-99.99,,,0.00,Acu-Link.com,2013-05-26 22:52:00,
2013-05-26 18:07:00,82.2,72.7,29.84,NNE,22,9.9,-999.0,73,-99.99,,,0.00,Acu-Link.com,2013-05-26 23:07:00,
2013-05-26 18:22:00,82.0,72.9,29.85,SE,135,8.3,-999.0,74,-99.99,,,0.00,Acu-Link.com,2013-05-26 23:22:00,
2013-05-26 18:37:00,81.5,72.4,29.85,ENE,67,6.3,-999.0,74,-99.99,,,0.00,Acu-Link.com,2013-05-26 23:37:00,
2013-05-26 18:53:00,81.0,72.3,29.85,SE,135,4.2,-999.0,75,-99.99,,,0.00,Acu-Link.com,2013-05-26 23:53:00,
2013-05-26 19:08:00,80.2,72.3,29.84,East,90,10.4,-999.0,77,-99.99,,,0.00,Acu-Link.com,2013-05-27 00:08:00,
2013-05-26 19:23:00,80.1,72.2,29.86,ENE,67,6.8,-999.0,77,-99.99,,,0.00,Acu-Link.com,2013-05-27 00:23:00,
2013-05-26 19:38:00,79.7,72.2,29.87,East,90,5.3,-999.0,78,-99.99,,,0.00,Acu-Link.com,2013-05-27 00:38:00,
2013-05-26 19:53:00,79.5,72.0,29.87,East,90,3.2,-999.0,78,-99.99,,,0.00,Acu-Link.com,2013-05-27 00:53:00,
2013-05-26 20:08:00,79.2,72.1,29.86,ESE,112,4.2,-999.0,79,-99.99,,,0.00,Acu-Link.com,2013-05-27 01:08:00,
2013-05-26 20:23:00,78.8,72.1,29.87,East,90,7.8,-999.0,80,-99.99,,,0.00,Acu-Link.com,2013-05-27 01:23:00,
2013-05-26 20:38:00,78.6,72.3,29.89,ESE,112,4.2,-999.0,81,-99.99,,,0.00,Acu-Link.com,2013-05-27 01:38:00,
2013-05-26 20:53:00,78.3,72.0,29.89,ESE,112,2.7,-999.0,81,-99.99,,,0.00,Acu-Link.com,2013-05-27 01:53:00,
2013-05-26 21:09:00,78.3,72.0,29.88,East,90,5.3,-999.0,81,-99.99,,,0.00,Acu-Link.com,2013-05-27 02:09:00,
2013-05-26 21:24:00,78.1,71.8,29.88,SSW,202,6.3,-999.0,81,-99.99,,,0.00,Acu-Link.com,2013-05-27 02:24:00,
2013-05-26 21:39:00,78.1,71.8,29.89,East,90,5.8,-999.0,81,-99.99,,,0.00,Acu-Link.com,2013-05-27 02:39:00,
2013-05-26 21:54:00,78.1,72.1,29.90,ESE,112,5.3,-999.0,82,-99.99,,,0.00,Acu-Link.com,2013-05-27 02:54:00,
2013-05-26 22:09:00,77.9,71.9,29.89,East,90,8.9,-999.0,82,-99.99,,,0.00,Acu-Link.com,2013-05-27 03:09:00,
2013-05-26 22:24:00,78.1,72.1,29.90,East,90,6.3,-999.0,82,-99.99,,,0.00,Acu-Link.com,2013-05-27 03:24:00,
2013-05-26 22:39:00,78.1,72.1,29.91,East,90,4.7,-999.0,82,-99.99,,,0.00,Acu-Link.com,2013-05-27 03:39:00,
2013-05-26 22:54:00,78.1,72.1,29.91,East,90,9.4,-999.0,82,-99.99,,,0.00,Acu-Link.com,2013-05-27 03:54:00,
2013-05-26 23:09:00,77.9,72.3,29.91,SE,135,4.2,-999.0,83,-99.99,,,0.00,Acu-Link.com,2013-05-27 04:09:00,
2013-05-26 23:25:00,77.9,72.3,29.92,ESE,112,6.8,-999.0,83,-99.99,,,0.00,Acu-Link.com,2013-05-27 04:25:00,
2013-05-26 23:40:00,77.9,72.3,29.92,East,90,3.2,-999.0,83,-99.99,,,0.00,Acu-Link.com,2013-05-27 04:40:00,
2013-05-26 23:55:00,77.9,72.3,29.92,ESE,112,6.3,-999.0,83,-99.99,,,0.00,Acu-Link.com,2013-05-27 04:55:00,